Weather History for KESF - December, 2013

Change the Weather History Date:

Wednesday, December 4, 2013

  Actual Average Record
Temperature  
Mean Temperature 75 °F -  
Max Temperature 81 °F 61 °F 81 °F (2013)
Min Temperature 69 °F 36 °F 22 °F (1989)
Cooling Degree Days 10    
Growing Degree Days 25 (Base 50)    
Moisture  
Dew Point 67 °F    
Average Humidity 79    
Maximum Humidity 90    
Minimum Humidity 58    
Precipitation  
Precipitation 0.00 in - - ()
Sea Level Pressure  
Sea Level Pressure 29.81 in    
Wind  
Wind Speed 7 mph (SSW)    
Max Wind Speed 16 mph    
Max Gust Speed 23 mph    
Visibility 7 miles    
Events      
Averages and records for this station are not official NWS values.
T = Trace of Precipitation, MM = Missing Value Source: NWS Daily Summary

Daily Weather History Graph

Daily Weather History Graph

Search for Another Location

Airport or City:

Trip Planner

Search our weather history database for the weather conditions in past years. The results will help you decide how hot, cold, wet, or windy it might be!

Date:

Astronomy

Dec. 04, 2013 Rise Set
Actual Time 6:53 AM CST 5:05 PM CST
Civil Twilight 6:26 AM CST 5:32 PM CST
Nautical Twilight 5:56 AM CST 6:02 PM CST
Astronomical Twilight 5:27 AM CST 6:31 PM CST
Moon 8:24 AM CST (12/4) 7:13 PM CST (12/4)
Length of Visible Light 11h 05m
Length of Day
10h 12m
Waxing Crescent, 4% of the Moon is Illuminated
Dec 4
Waxing Crescent
Dec 9
First Quarter
Dec 17
Full
Dec 25
Last Quarter
Jan 1
New

Hourly Weather History & Observations

Time (CST) Temp. Heat Index Dew Point Humidity Pressure Visibility Wind Dir Wind Speed Gust Speed Precip Events Conditions
12:53 AM 71.1 °F - 66.0 °F 84% 29.75 in 10.0 mi SW 8.1 mph - N/A   Overcast
1:11 AM 71.6 °F - 66.2 °F 83% 29.75 in 10.0 mi SSW 8.1 mph - N/A   Overcast
1:53 AM 71.1 °F - 66.0 °F 84% 29.75 in 9.0 mi SSW 8.1 mph - N/A   Overcast
2:53 AM 71.1 °F - 66.0 °F 84% 29.75 in 8.0 mi SSW 4.6 mph - N/A   Overcast
3:53 AM 71.1 °F - 66.0 °F 84% 29.75 in 7.0 mi South 5.8 mph - N/A   Overcast
4:53 AM 70.0 °F - 66.0 °F 87% 29.76 in 5.0 mi South 3.5 mph - N/A   Overcast
5:51 AM 69.8 °F - 66.2 °F 88% 29.77 in 4.0 mi South 6.9 mph - N/A   Mostly Cloudy
5:53 AM 70.0 °F - 66.0 °F 87% 29.77 in 4.0 mi South 5.8 mph - N/A   Mostly Cloudy
6:35 AM 69.8 °F - 66.2 °F 88% 29.78 in 4.0 mi SSW 5.8 mph - N/A   Overcast
6:44 AM 69.8 °F - 66.2 °F 88% 29.79 in 4.0 mi South 3.5 mph - N/A   Overcast
6:53 AM 70.0 °F - 66.9 °F 90% 29.79 in 4.0 mi SSW 4.6 mph - N/A   Overcast
7:12 AM 69.8 °F - 66.2 °F 88% 29.81 in 2.5 mi South 4.6 mph - N/A   Overcast
7:29 AM 69.8 °F - 66.2 °F 88% 29.82 in 2.5 mi South 3.5 mph - N/A   Overcast
7:53 AM 71.1 °F - 66.9 °F 87% 29.82 in 3.0 mi South 8.1 mph - N/A   Overcast
8:03 AM 71.6 °F - 66.2 °F 83% 29.83 in 3.0 mi South 6.9 mph - N/A   Overcast
8:53 AM 73.0 °F - 68.0 °F 84% 29.84 in 4.0 mi SSW 5.8 mph - N/A   Haze
9:37 AM 73.4 °F - 66.2 °F 78% 29.86 in 5.0 mi SSW 9.2 mph 18.4 mph N/A   Haze
9:53 AM 75.0 °F - 66.9 °F 76% 29.86 in 5.0 mi South 5.8 mph - N/A   Haze
10:53 AM 79.0 °F - 66.0 °F 64% 29.84 in 6.0 mi SSW 16.1 mph 23.0 mph N/A   Haze
11:25 AM 78.8 °F - 66.2 °F 65% 29.83 in 7.0 mi SSW 12.7 mph 19.6 mph N/A   Mostly Cloudy
11:33 AM 78.8 °F - 64.4 °F 61% 29.83 in 7.0 mi SSW 11.5 mph 23.0 mph N/A   Scattered Clouds
11:53 AM 80.1 °F 81.9 °F 64.9 °F 60% 29.82 in 8.0 mi SSW 16.1 mph 23.0 mph N/A   Partly Cloudy
12:53 PM 81.0 °F 82.7 °F 64.9 °F 58% 29.80 in 9.0 mi SSW 10.4 mph 19.6 mph N/A   Mostly Cloudy
1:53 PM 81.0 °F 82.7 °F 64.9 °F 58% 29.78 in 10.0 mi SSW 9.2 mph - N/A   Scattered Clouds
2:53 PM 81.0 °F 82.7 °F 64.9 °F 58% 29.76 in 10.0 mi South 10.4 mph 17.3 mph N/A   Scattered Clouds
3:53 PM 79.0 °F - 66.0 °F 64% 29.77 in 9.0 mi South 9.2 mph 16.1 mph N/A   Partly Cloudy
4:53 PM 77.0 °F - 64.9 °F 66% 29.77 in 8.0 mi South 6.9 mph - N/A   Clear
5:53 PM 75.0 °F - 66.9 °F 76% 29.78 in 9.0 mi South 3.5 mph - N/A   Partly Cloudy
6:53 PM 73.9 °F - 66.9 °F 79% 29.81 in 10.0 mi SSW 6.9 mph - N/A   Partly Cloudy
7:23 PM 73.4 °F - 68.0 °F 83% 29.82 in 10.0 mi South 5.8 mph - N/A   Mostly Cloudy
7:53 PM 73.9 °F - 68.0 °F 82% 29.83 in 10.0 mi South 5.8 mph - N/A   Overcast
8:25 PM 73.4 °F - 68.0 °F 83% 29.84 in 10.0 mi South 5.8 mph - N/A   Overcast
8:53 PM 73.9 °F - 68.0 °F 82% 29.84 in 10.0 mi South 6.9 mph - N/A   Overcast
9:53 PM 73.9 °F - 68.0 °F 82% 29.85 in 10.0 mi South 5.8 mph - N/A   Overcast
10:26 PM 73.4 °F - 68.0 °F 83% 29.86 in 10.0 mi South 8.1 mph - N/A   Mostly Cloudy
10:53 PM 73.9 °F - 68.0 °F 82% 29.86 in 10.0 mi SSW 8.1 mph - N/A   Mostly Cloudy
11:15 PM 73.4 °F - 69.8 °F 88% 29.87 in 10.0 mi SSW 6.9 mph - N/A   Overcast
11:39 PM 73.4 °F - 69.8 °F 88% 29.87 in 10.0 mi SSW 5.8 mph - N/A   Mostly Cloudy
11:53 PM 73.9 °F - 69.1 °F 85% 29.86 in 10.0 mi SSW 4.6 mph - N/A   Mostly Cloudy